Starlink 30767

operational
NORAD ID: 58126 Int'l Des: 2023-162 Owner: SPXS Country: US Constellation: starlink
LEOCIRCULAR

关于 Starlink 30767

正在加载描述...

实时位置

正在加载3D地球...

即将过境

高度历史

Altitude vs Time

uPlot chart will show altitude changes over time

两行轨道根数

1 58126U 23162J 25351.60493123 -.00001888 00000-0 -12473-3 0 9997
2 58126 43.0016 219.0049 0001287 259.6745 100.3953 15.02533839119954
Epoch: Dec 17, 2025 • Age: 22 hours

当前状态

高度 564.1 km
速度 7.58 km/s
星下点 -23.49°S, 151.13°E
发射日期 Oct 22, 2023
运行时间 2.1 years
类型 internet

技术详情

分类 Payload
质量 730.00 kg
干质量 700.00 kg
总质量 730.00 kg
长度 0.30 m
直径 4.10 m
跨度 29.00 m
形状 Box + pan
制造商 SPXS
平台类型 Starlink V2M
阶段状态 In Orbit
所有者/国家 SPXS/US

大型星座

Loading constellations...